Volver al catálogo

DELTA 1 DEB

ActivoSSO
NORAD 8319·DEBRIS·🇺🇸 United States

Lanzado Jul 23, 1972 desde Vandenberg Space Force Base

Loading…

Próximos Pases (próximas 24 horas)

TLE

ActualizadoSource: Space-Track

Época: Sep 14, 2026, 14:33 UTC

1 08319U 72058EM  26257.60654398  .00000413  00000-0  97664-4 0  9990
2 08319  98.6042 318.2306 0133047 165.2703 195.2429 14.54543308830669

Sigue DELTA 1 DEB en tiempo real con AllMySat

Download on the App Store